User: anonymous
Location: Caltech
(34.1382°N, 118.1253°W)
Time: 08:50:48
(UTC-07:00)
Language:

OAO 2 Rocket - Orbit

View from above orbital plane
View from above orbital plane
View from above satellite
View from above satellite

Ground track
Ground track

The orbit data is extracted from the following two-line orbital elements,

1 03598U 68110B   14273.39820602  .00000770  00000-0  18309-3 0  7253
2 03598 034.9928 170.4229 0049499 114.1795 231.0292 14.53711214422174
Epoch (UTC): 30 September 2014 09:33:25
Eccentricity: 0.0049499
inclination: 34.9928°
perigee height: 678 km
apogee height: 748 km
right ascension of ascending node: 170.4229°
argument of perigee: 114.1795°
revolutions per day: 14.53711214
mean anomaly at epoch: 231.0292°
orbit number at epoch: 42217

The dashed part of the orbit path shows where the satellite is in the earth's shadow,  

DLR